This is the latest recevied weather packets stored in our database for station/object KF7ROW. If no packets are shown the sender has not sent any weather packets the latest 10 day(s).
| Time | Temp. | Humidity | Pressure | Rain* | Wind** | Luminosity | Snow |
|---|---|---|---|---|---|---|---|
| 1778203549 | 15° C | 72% | 1022.3 hPa | 0 mm | - | 161 W/m² | - |
| 1778203246 | 15° C | 71% | 1022.1 hPa | 0 mm | - | 175 W/m² | - |
| 1778202944 | 15° C | 71% | 1022.3 hPa | 0 mm | - | 161 W/m² | - |
| 1778202642 | 14.44° C | 73% | 1022.2 hPa | 0 mm | - | 193 W/m² | - |
| 1778202338 | 15° C | 73% | 1022.3 hPa | 0 mm | - | 208 W/m² | - |
| 1778202036 | 14.44° C | 76% | 1022.4 hPa | 0 mm | - | 241 W/m² | - |
| 1778201732 | 14.44° C | 74% | 1022.3 hPa | 0 mm | - | 260 W/m² | - |
| 1778201429 | 14.44° C | 75% | 1022.5 hPa | 0 mm | - | 274 W/m² | - |
| 1778201125 | 14.44° C | 73% | 1022.4 hPa | 0 mm | - | 295 W/m² | - |
| 1778200822 | 14.44° C | 72% | 1022.6 hPa | 0 mm | - | 287 W/m² | - |
| 1778200518 | 14.44° C | 74% | 1022.5 hPa | 0 mm | - | 326 W/m² | - |
| 1778200216 | 14.44° C | 74% | 1022.6 hPa | 0 mm | - | 340 W/m² | - |
| 1778199911 | 15° C | 72% | 1022.6 hPa | 0 mm | - | 349 W/m² | - |
| 1778199609 | 15° C | 73% | 1022.5 hPa | 0 mm | - | 370 W/m² | - |
| 1778199305 | 15° C | 72% | 1022.6 hPa | 0 mm | - | 377 W/m² | - |
| 1778199001 | 15° C | 72% | 1022.7 hPa | 0 mm | - | 381 W/m² | - |
| 1778198697 | 14.44° C | 73% | 1022.6 hPa | 0 mm | - | 412 W/m² | - |
| 1778198394 | 14.44° C | 72% | 1022.7 hPa | 0 mm | - | 424 W/m² | - |
| 1778198091 | 15° C | 73% | 1022.7 hPa | 0 mm | - | 437 W/m² | - |
| 1778197789 | 15° C | 73% | 1022.7 hPa | 0 mm | - | 451 W/m² | - |
| 1778197485 | 15° C | 74% | 1022.7 hPa | 0 mm | - | 461 W/m² | - |
| 1778197182 | 15° C | 73% | 1022.8 hPa | 0 mm | - | 475 W/m² | - |
| 1778196878 | 15° C | 74% | 1022.8 hPa | 0 mm | - | 491 W/m² | - |
| 1778196577 | 15° C | 72% | 1022.8 hPa | 0 mm | - | 491 W/m² | - |
| 1778196273 | 15° C | 74% | 1022.7 hPa | 0 mm | - | 472 W/m² | - |
* Rain latest hour (hover to see other rain measurements)
** Current wind speed in m/s (hover to see current wind gust speed)